星链-36510(STARLINK-36510)

导读 | 豆包AI

STARLINK-36510是美国SpaceX星链互联网卫星项目中的一员,于2026年1月12日发射升空。星链计划旨在构建全球卫星互联网星座,为全球偏远地区、海洋等网络覆盖空白区域提供高速低延迟的宽带服务,该卫星是星链大规模组网进程中的新增节点,进一步扩充了星链星座的覆盖容量与服务能力。

基本信息
目录编号:
67407
目录名称:
STARLINK-36510
国际标识:
2026-005D
轨道中心:
EARTH
卫星名称:
星链-36510
卫星全名:
星链-36510(STARLINK-36510)
卫星状态:
在轨 (已飞行133 天)
发射日期:
2026-01-12 UTC
国别 :
美国 (US)
星等 :
--
轨道信息
数据来源 国际轨道数据
星历时间: 2026-05-24T11:08:17+0800
1天前
查看轨道信息
半长轴: 6861.149km
偏心率: 0.0001667
轨道倾角: 43.003°
近地点辐角 274.981°
升交点赤经 171.982°
平近点角 85.085°
近地点: 481.868km
远地点: 484.156km
周期: 94.266分钟
每日圈数: 15.275926
详细信息
固有亮度:
5
最大亮度:
2.5
卫星平台:
Starlink V1.0
覆盖范围:
全球
运营商:
太空探索技术公司
运营商所在国:
美国
制造商(研发单位):
太空探索技术公司
制造商所在国:
美国
使用方式:
暂无
卫星简介
Starlink 计划是 SpaceX 推出的全球卫星互联网项目,通过发射低轨道卫星,为全球尤其是偏远地区提供高速、低延迟的互联网服务。自 2019 年起,Starlink 已部署数千颗卫星,旨在缩小全球数字鸿沟,推动互联网普及。该项目还为军事、航空等行业提供通信支持,带来广泛经济效益。
2D轨道图
3D轨道图
轨道高度分析图
轨道倾角分析图
轨道综合分析图
查看轨道综合分析图